Location: Bacea
(45.9500°N, 22.6667°E)
Time: 20:06:47
(UTC+00:00)

Cosmos 1908 - Pass Details

Date: 16 October 2021
Orbit: 509 x 528 km, 82.5° (Epoch: 29 November)

Event Time Altitude Azimuth Distance (km) Brightness Sun altitude
Rises 16:05:12 0° 154° (SSE) 2,655 6.6 -4.9°
Reaches altitude 10° 16:07:42 10° 139° (SE) 1,770 5.6 -5.3°
Maximum altitude 16:10:41 22° 88° (E) 1,205 4.5 -5.8°
Drops below altitude 10° 16:13:41 10° 38° (NE) 1,776 5.5 -6.4°
Sets 16:16:11 0° 23° (NNE) 2,667 6.5 -6.8°
